Weather History for Branson, MO

Change the Weather History Date:

Sunday, May 5, 2013

  Actual Average (KHRO) Record (KHRO)
Temperature  
Mean Temperature 46 °F 63 °F  
Max Temperature 57 °F 74 °F 91 °F (1952)
Min Temperature 35 °F 53 °F 30 °F (1947)
Degree Days  
Heating Degree Days 19 4  
Month to date heating degree days 20  
Since 1 July heating degree days 3941  
Cooling Degree Days 0 2  
Month to date cooling degree days 10  
Year to date cooling degree days 47  
Moisture  
Dew Point 40 °F    
Average Humidity 87    
Maximum Humidity 100    
Minimum Humidity 58    
Precipitation  
Precipitation 0.00 in 0.17 in 2.10 in (1961)
Month to date precipitation 0.85  
Year to date precipitation 14.16  
Snow  
Snow 0.00 in 0.00 in - ()
Month to date snowfall 0.0  
Since 1 July snowfall 11.5  
Snow Depth -    
Sea Level Pressure  
Sea Level Pressure 30.01 in    
Wind  
Wind Speed 3 mph (WNW)    
Max Wind Speed 16 mph    
Max Gust Speed 17 mph    
Visibility 9 miles    
Events      
T = Trace of Precipitation, MM = Missing Value Source: NWS Daily Summary

Daily Weather History Graph

Daily Weather History Graph

Search for Another Location

Airport:

Trip Planner

Search our weather history database for the weather conditions in past years. The results will help you decide how hot, cold, wet, or windy it might be!

Date:

Astronomy

May. 05, 2013 Rise Set
Actual Time 6:14 AM CDT 8:04 PM CDT
Civil Twilight 5:46 AM CDT 8:32 PM CDT
Nautical Twilight 5:12 AM CDT 9:06 PM CDT
Astronomical Twilight 4:36 AM CDT 9:43 PM CDT
Moon 3:38 AM CDT (5/5) 4:10 PM CDT (5/5)
Length of Visible Light 14h 46m
Length of Day
13h 49m
Waning Crescent, 18% of the Moon is Illuminated
May 5
Waning Crescent
May 9
New
May 17
First Quarter
May 24
Full
May 31
Last Quarter

Hourly Weather History & Observations

Time (CDT) Temp. Windchill Dew Point Humidity Pressure Visibility Wind Dir Wind Speed Gust Speed Precip Events Conditions
12:15 AM 37.4 °F - 35.6 °F 93% 29.99 in 10.0 mi Calm Calm - N/A   Overcast
12:35 AM 37.4 °F - 35.6 °F 93% 29.99 in 10.0 mi Calm Calm - N/A   Overcast
12:55 AM 35.6 °F - 35.6 °F 100% 29.99 in 10.0 mi Calm Calm - N/A   Overcast
1:15 AM 35.6 °F - 35.6 °F 100% 29.99 in 10.0 mi Calm Calm - N/A   Overcast
1:35 AM 37.4 °F - 35.6 °F 93% 29.99 in 10.0 mi Calm Calm - N/A   Overcast
1:55 AM 35.6 °F - 35.6 °F 100% 29.99 in 10.0 mi Calm Calm - N/A   Overcast
2:15 AM 37.4 °F - 35.6 °F 93% 29.98 in 10.0 mi Calm Calm - N/A   Overcast
2:35 AM 37.4 °F - 35.6 °F 93% 29.99 in 10.0 mi Calm Calm - N/A   Overcast
2:55 AM 37.4 °F - 35.6 °F 93% 29.98 in 10.0 mi Calm Calm - N/A   Mostly Cloudy
3:15 AM 35.6 °F - 35.6 °F 100% 29.99 in 10.0 mi Calm Calm - N/A   Partly Cloudy
3:35 AM 35.6 °F - 35.6 °F 100% 29.99 in 10.0 mi Calm Calm - N/A   Clear
3:55 AM 35.6 °F - 35.6 °F 100% 29.99 in 10.0 mi Calm Calm - N/A   Clear
4:15 AM 35.6 °F - 35.6 °F 100% 30.00 in 10.0 mi Calm Calm - N/A   Clear
4:35 AM 35.6 °F - 35.6 °F 100% 30.00 in 10.0 mi Calm Calm - N/A   Clear
4:55 AM 35.6 °F - 35.6 °F 100% 30.00 in 10.0 mi Calm Calm - N/A   Clear
5:15 AM 35.6 °F - 35.6 °F 100% 30.00 in 8.0 mi Calm Calm - N/A   Clear
5:35 AM 35.6 °F - 35.6 °F 100% 29.99 in 7.0 mi Calm Calm - N/A   Clear
5:55 AM 35.6 °F - 35.6 °F 100% 30.00 in 8.0 mi Calm Calm - N/A   Partly Cloudy
6:15 AM 35.6 °F - 35.6 °F 100% 30.01 in 7.0 mi Calm Calm - N/A   Mostly Cloudy
6:35 AM 37.4 °F - 35.6 °F 93% 30.02 in 5.0 mi Calm Calm - N/A   Overcast
6:48 AM 37.4 °F - 37.4 °F 100% 30.02 in 5.0 mi Calm Calm - N/A   Mostly Cloudy
7:48 AM 39.2 °F 37.0 °F 39.2 °F 100% 30.04 in 7.0 mi West 3.5 mph - N/A   Mostly Cloudy
8:51 AM 41.0 °F 32.8 °F 39.2 °F 93% 30.06 in 10.0 mi NNW 16.1 mph - N/A   Overcast
10:47 AM 42.8 °F 35.8 °F 37.4 °F 81% 30.07 in 10.0 mi NW 13.8 mph - N/A   Mostly Cloudy
11:46 AM 48.2 °F - 39.2 °F 71% 30.07 in 10.0 mi NW 10.4 mph - N/A   Mostly Cloudy
1:48 PM 53.6 °F - 41.0 °F 62% 30.03 in 10.0 mi NW 8.1 mph 16.1 mph N/A   Overcast
2:48 PM 55.4 °F - 41.0 °F 58% 30.02 in 10.0 mi NW 9.2 mph - N/A   Mostly Cloudy
3:45 PM 57.2 °F - 44.6 °F 63% - 10.0 mi WNW 8.1 mph 17.3 mph N/A   Overcast
4:55 PM 55.4 °F - 44.6 °F 67% 30.01 in 10.0 mi NW 8.1 mph - N/A   Overcast
5:55 PM 55.4 °F - 46.4 °F 72% 30.01 in 10.0 mi WNW 6.9 mph - N/A   Overcast
6:45 PM 55.4 °F - 46.4 °F 72% 30.00 in 10.0 mi WNW 6.9 mph - N/A   Overcast
7:45 PM 55.4 °F - 46.4 °F 72% 30.00 in 10.0 mi WNW 9.2 mph - N/A   Mostly Cloudy
8:45 PM 53.6 °F - 46.4 °F 77% 30.00 in 10.0 mi WNW 8.1 mph - N/A   Overcast
9:35 PM 53.6 °F - 46.4 °F 77% 30.01 in 10.0 mi WNW 9.2 mph - N/A   Mostly Cloudy
9:55 PM 51.8 °F - 46.4 °F 82% 30.02 in 10.0 mi WNW 9.2 mph - N/A   Overcast
10:15 PM 51.8 °F - 46.4 °F 82% 30.03 in 10.0 mi WNW 8.1 mph - N/A   Overcast
10:35 PM 53.6 °F - 46.4 °F 77% 30.03 in 10.0 mi WNW 8.1 mph 16.1 mph N/A   Overcast
10:55 PM 51.8 °F - 46.4 °F 82% 30.03 in 10.0 mi NW 11.5 mph 17.3 mph N/A   Overcast
11:15 PM 51.8 °F - 46.4 °F 82% 30.02 in 10.0 mi WNW 10.4 mph - N/A   Overcast
11:35 PM 51.8 °F - 46.4 °F 82% 30.02 in 10.0 mi WNW 8.1 mph 16.1 mph N/A   Overcast
11:55 PM 51.8 °F - 46.4 °F 82% 30.02 in 10.0 mi WNW 6.9 mph - N/A   Overcast